Pagina principale
METAR-TAF:

METAR-TAF

Aeroporti :

East Hampton Airport

East Hampton, New York, Stati Uniti

latitudine: 40-57-34N, longitudine: 072-15-07W, altezza: 17 m

Osservazione

Il bollettino è stato emesso 16 minuti fa, alle 23:15 UTC
Vento 11 kt da ovest/sud-ovest con raffiche fino a 17 kt
Temperature 19°C
Umidità 94%
Pressione 1012 hPa
Visibilità: 16.1 km
Nuvoloso ad un'altezza di 800 ft
Cielo coperto ad un'altezza di 12000 ft

METAR: KHTO 152315Z AUTO 24011G17KT 10SM BKN008 OVC120 19/18 A2989 RMK AO2 T01870175

Ora: 19:31 (23:31 UTC)


TAF: mancante

Osservazioni e previsioni meteorologiche di più di 4000 aeroporti (messaggi METAR e TAF).

Le stazioni disponibili sono rappresentate dai dischi gialli e rossi sulla carta.

Puntare il mouse per vedere il nome della stazione.

Clicca sopra per visualizzare le osservazioni e previsioni meteorologiche.

Per cambiare la mappa : fare clic sui pulsanti verdi con una croce nera per ingrandire, il pulsante verde con un trattino per diminuire, o sulla freccia verde per le mappe adiacenti.


METAR-TAF: